Orbital Elements at Epoch 2459000.5 (2020-May-31.0) TDB
Reference: JPL 58 (heliocentric ecliptic J2000)
Element | Value | Uncertainty (1-sigma) | Units |
e | .4944365655388597 | 2.1113e-08 | |
a | 1.626445870069685 | 7.032e-09 | au |
q | .8222715600375674 | 3.3426e-08 | au |
i | 28.89446852721052 | 1.0001e-05 | deg |
node | 137.7397129286929 | 1.5333e-06 | deg |
peri | 64.63016838518107 | 5.6913e-06 | deg |
M | 177.6157358312982 | 6.0742e-06 | deg |
tp | 2458626.702160777361 (2019-May-23.20216078) | 1.0521e-05 | TDB |
period | 757.6311946142201 2.07 | 4.9135e-06 1.345e-08 | d yr |
n | .4751652288859479 | 3.0816e-09 | deg/d |
Q | 2.430620180101802 | 1.0509e-08 | au |
|
| | Orbit Determination Parameters
Additional Information
|